Location: Philomena
(55.1756°N, 111.6233°W)
Time: 10:31:59
(UTC+00:00)

PCSat - Pass Details

Date: 14 December 2023
Orbit: 784 x 791 km, 67.0° (Epoch: 23 February)

Event Time Altitude Azimuth Distance (km) Brightness Sun altitude
Exits shadow 14:37:27 10° 315° (NW) 2,395 11.4 -8.7°
Reaches altitude 10° 14:37:33 10° 316° (NW) 2,364 11.4 -8.7°
Maximum altitude 14:41:59 25° 11° (N) 1,567 11.0 -8.2°
Drops below altitude 10° 14:46:25 10° 66° (ENE) 2,365 12.6 -7.6°
Sets 14:49:16 0° 79° (E) 3,294 13.6 -7.3°
